Overview Statistics Trail Chart Weather Telemetry Raw packets
 

This is the latest recevied weather packets stored in our database for station/object HB9FHL-13. If no packets are shown the sender has not sent any weather packets the latest 10 day(s).

<< 66 67 68 69 70 71 72 >>
Time Temp. Humidity Pressure Rain* Wind** Luminosity Snow
1788271625 21.67° C - 1022.8 hPa 0 mm - - -
1788271565 21.67° C - 1022.8 hPa 0 mm - - -
1788271265 21.11° C - 1022.3 hPa 0 mm - - -
1788270964 20.56° C - 1020.1 hPa 0 mm - - -
1788270685 21.11° C - 1019.4 hPa 0 mm - - -
1788270361 21.11° C - 1024.1 hPa 0 mm - - -
1788269759 21.67° C - 1019.8 hPa 0 mm - - -
1788269459 21.11° C - 1019.6 hPa 0 mm - - -
1788269158 21.11° C - 1023.7 hPa 0 mm - - -
1788268858 21.11° C - 1017.4 hPa 0 mm - - -
1788268257 19.44° C - 1024.3 hPa 0 mm - - -
1788267956 20° C - 1020.5 hPa 0 mm - - -
1788267656 21.11° C - 1025.2 hPa 0 mm - - -
1788267355 20.56° C - 1022.5 hPa 0 mm - - -
1788267055 20° C - 1021.6 hPa 0 mm - - -
1788266467 20° C - 1018.4 hPa 0 mm - - -
1788266152 20° C - 1028 hPa 0 mm - - -
1788265851 20° C - 1021.1 hPa 0 mm - - -
1788265551 20° C - 1023.3 hPa 0 mm - - -
1788265251 20° C - 1024.1 hPa 0 mm - - -
1788264950 20.56° C - 1026.5 hPa 0 mm - - -
1788264649 19.44° C - 1019.7 hPa 0 mm - - -
1788264348 20.56° C - 1019.4 hPa 0 mm - - -
1788264049 20.56° C - 1024.2 hPa 0 mm - - -
1788263443 20° C - 1023.2 hPa 0 mm - - -

* Rain since midnight (hover to see other rain measurements)
** Current wind speed in m/s (hover to see current wind gust speed)